     15  07 47.69  +16 19.3  1.002  0.961   61.2/116   57.2  10.3  +35.2  274.6

     16  07 51.50  +15 52.4  1.008  0.964   60.5/116   57.2  10.4  +35.2  275.3

     17  07 55.26  +15 25.6  1.014  0.967   59.9/116   57.2  10.4  +35.2  275.9

     18  07 58.96  +14 58.9  1.021  0.971   59.2/117   57.3  10.4  +35.1  276.5

     19  08 02.60  +14 32.3  1.027  0.974   58.5/117   57.3  10.4  +35.1  277.2

     20  08 06.20  +14 05.8  1.033  0.978   57.9/117   57.3  10.5  +35.1  277.8

NAKANO

         **** Don't distribute anyone except personal use only ****

                (C) Copyright 2001 OAA/ComputingSection

write mail from CFAD0::NAKANO on 2001-08-22 05:09:06(JST).

 

◎C/2001 Q2の概略軌道と予報位置です



 上尾の門田健一氏は,21日早朝に,この彗星の観測に成功しました.

氏の CCD全光度は,12.4等,彗星は,中央集光をもつ拡散状で,コマ

の視直径は,1'.2,P.A. 275度の方向に1'の淡い尾があるとのことで

す.なお,軌道決定された軌道(T= 2001 Aug. 28, q=0.98 AU, W=175,

N=218, I=14)は,103P/Hartley 2のそれらに良く似ています.



    C/2001 Q2 (Petriew) 

T 2001 Sept. 26.08696 TT                                Nakano

q   0.9645013            (2000.0)            P               Q

                   Peri.  216.50570     +0.15966992     -0.94640461

                   Node   226.26206     +0.97248166     +0.19967806

e   1.0            Incl.   22.86644     +0.16966126     -0.25386409

From 8 observations 2001 Aug. 19-20.



 18h TT  R.A.(2000) Decl.    Delta   r      Mot./PA   Elong. Mag.  At twilight

           h  m       。  ,                    ,     .    .    m1     h.    A .

Aug. 18  05 33.96  +28 00.8  1.236  1.169   78.0/104   61.7  11.6  +39.9  261.0

     19  05 39.66  +27 41.3  1.229  1.159   78.6/105   61.4  11.6  +39.6  261.3

     20  05 45.36  +27 20.7  1.223  1.150   79.2/106   61.1  11.5  +39.3  261.7

     21  05 51.06  +26 59.1  1.217  1.141   79.7/106   60.8  11.5  +39.0  262.0

     22  05 56.77  +26 36.4  1.211  1.132   80.2/107   60.5  11.5  +38.7  262.4

     23  06 02.47  +26 12.6  1.206  1.123   80.7/108   60.1  11.4  +38.4  262.7

     24  06 08.17  +25 47.8  1.201  1.115   81.2/108   59.8  11.4  +38.1  263.1

     25  06 13.86  +25 22.0  1.196  1.106   81.6/109   59.5  11.3  +37.8  263.5

     26  06 19.53  +24 55.2  1.192  1.098   82.0/110   59.1  11.3  +37.4  263.9

     27  06 25.19  +24 27.4  1.189  1.090   82.3/110   58.8  11.3  +37.1  264.4

     28  06 30.83  +23 58.6  1.185  1.082   82.6/111   58.4  11.2  +36.7  264.8

     29  06 36.44  +23 28.9  1.182  1.075   82.9/111   58.1  11.2  +36.4  265.3

     30  06 42.04  +22 58.4  1.180  1.067   83.1/112   57.7  11.1  +36.0  265.7

     31  06 47.60  +22 27.0  1.177  1.060   83.3/112   57.4  11.1  +35.6  266.2

Sept. 1  06 53.13  +21 54.8  1.176  1.053   83.5/113   57.0  11.1  +35.2  266.7

NAKANO

         **** Don't distribute anyone except personal use only ****

                (C) Copyright 2001 OAA/ComputingSection

write mail from CFAD0::NAKANO on 2001-08-21 04:39:05(JST).

 

◎C/2001 Q2の概略位置予報です



 IAUC7686のみの観測から計算した位置予報です.このバイサラ軌道は,

1日前の発見観測を10'の精度で表現します.モ−ションが大きいので

これ以上の精度は難しいでしょう.

------------------------------------------------------------------------------

2001Q2   2001 08 18.42      05 31.9      +28 08        601.7- 105.0+  500/NO X 

2001Q2   2001 08 19.45502   05 37 59.10  +27 47 07.8     0.0    0.0   921/hA   

2001Q2   2001 08 19.46173   05 38 01.45  +27 46 58.4     1.0+   1.4-  921/hA   

2001Q2   2001 08 19.47459   05 38 05.77  +27 46 45.4     0.0    1.0+  921/hA   

2001Q2   2001 08 19.48078   05 38 07.88  +27 46 36.9     0.0    0.0   921/hA   

------------------------------------------------------------------------------

 

T/TT                q (AU)    e         Peri.     Node      Inc.          P

2001 Aug. 19.4791   0.891005  1.0       171.0323  162.6259  166.2677         

 

                    m1 = 13.0+5log(delta)+10.0log(r)

 

 

Date/        TT  R.A.(2000) Decl.     Delta   r     Daily motion  Mag.  Moon Age

              h    h  m       。  ,                      ,  / PA 。  m1      。

2001 Aug. 20 15  05 45.54  +27 19.4   0.381  0.891   101.5 / 106  10.4   82  .04

          20 16  05 45.84  +27 18.2   0.379  0.891   102.4 / 106  10.4   83  .04

          20 17  05 46.15  +27 17.1   0.377  0.891   103.4 / 106  10.4   83  .04

          20 18  05 46.46  +27 15.9   0.376  0.891   104.3 / 106  10.4   84  .04

          20 19  05 46.78  +27 14.7   0.374  0.891   105.3 / 106  10.4   84  .04

          20 20  05 47.09  +27 13.5   0.372  0.891   106.3 / 106  10.4   85  .05

2001 Aug. 21 15  05 53.69  +26 47.7   0.341  0.892   128.0 / 107  10.2   95  .09

          21 16  05 54.08  +26 46.2   0.339  0.892   129.3 / 107  10.2   96  .10

          21 17  05 54.46  +26 44.7   0.337  0.892   130.6 / 107  10.1   96  .10

          21 18  05 54.85  +26 43.1   0.336  0.892   132.0 / 107  10.1   97  .10

          21 19  05 55.24  +26 41.5   0.334  0.892   133.3 / 107  10.1   97  .11

          21 20  05 55.64  +26 39.9   0.332  0.892   134.7 / 107  10.1   98  .11

NAKANO

         **** Don't distribute anyone except personal use only ****

                (C) Copyright 2001 OAA/ComputingSection

write mail from CFAD0::NAKANO on 2001-08-21 01:49:53(JST).

 



戻ります。